This is the latest recevied weather packets stored in our database for station/object DL6DJ-15. If no packets are shown the sender has not sent any weather packets the latest 10 day(s).
| Time | Temp. | Humidity | Pressure | Rain* | Wind** | Luminosity | Snow |
|---|---|---|---|---|---|---|---|
| 1777963246 | 30.56° C | 27% | 1009.9 hPa | - | - | - | - |
| 1777962945 | 30.56° C | 26% | 1009.8 hPa | - | - | - | - |
| 1777962646 | 30° C | 27% | 1009.9 hPa | - | - | - | - |
| 1777962345 | 29.44° C | 28% | 1009.9 hPa | - | - | - | - |
| 1777962045 | 28.33° C | 30% | 1009.9 hPa | - | - | - | - |
| 1777961744 | 27.78° C | 30% | 1009.9 hPa | - | - | - | - |
| 1777961443 | 26.11° C | 32% | 1010.1 hPa | - | - | - | - |
| 1777961144 | 25.56° C | 34% | 1010 hPa | - | - | - | - |
| 1777960843 | 23.89° C | 36% | 1010 hPa | - | - | - | - |
| 1777960543 | 23.89° C | 38% | 1010 hPa | - | - | - | - |
| 1777960242 | 25° C | 35% | 1010 hPa | - | - | - | - |
| 1777959942 | 24.44° C | 34% | 1009.9 hPa | - | - | - | - |
| 1777959641 | 25° C | 33% | 1009.9 hPa | - | - | - | - |
| 1777959341 | 25° C | 34% | 1009.9 hPa | - | - | - | - |
| 1777959041 | 25° C | 33% | 1009.9 hPa | - | - | - | - |
| 1777958740 | 24.44° C | 35% | 1009.9 hPa | - | - | - | - |
| 1777958440 | 23.33° C | 37% | 1009.9 hPa | - | - | - | - |
| 1777958140 | 21.67° C | 40% | 1009.9 hPa | - | - | - | - |
| 1777957839 | 20° C | 43% | 1009.8 hPa | - | - | - | - |
| 1777957539 | 18.33° C | 49% | 1009.7 hPa | - | - | - | - |
| 1777957239 | 15.56° C | 57% | 1009.7 hPa | - | - | - | - |
| 1777956938 | 12.78° C | 67% | 1009.8 hPa | - | - | - | - |
| 1777956638 | 10.56° C | 71% | 1009.8 hPa | - | - | - | - |
| 1777956338 | 10.56° C | 70% | 1009.8 hPa | - | - | - | - |
| 1777956037 | 10.56° C | 69% | 1009.8 hPa | - | - | - | - |
* Rain since midnight (hover to see other rain measurements)
** Current wind speed in m/s (hover to see current wind gust speed)